Flag for Senegal Weather past 2 weeks in Thiès, Senegal

Now
72 °F

Clear.


Feels Like: 77 °F
Forecast: 63 / 83 °F
Wind: 9 mph from Northeast

Location: Dakar / Yoff

Current Time: Dec 28, 2014 at 3:06:16 AM

Latest Report: Dec 28, 2014 at 2:30 AM


Visibility: 5 mi

Pressure: 29.95 "Hg

Humidity: 36%

Dew point: 43 °F

Location of ThièsLocation

Historic Weather in Thiès — Graph

°F

Thiès temperature yesterday

Maximum temperature yesterday: 86 °F (at 2:00 PM)
Minimum temperature yesterday: 73 °F (at 12:30 AM)
Average temperature yesterday: 78 °F

Past Weeks' High & Low Weather Summary

 TemperatureHumidityPressure
High91 °F (Dec 26, 2:00 PM)94% (Dec 23, 12:30 AM)30.07 "Hg (Dec 23, 12:30 AM)
Low68 °F (Dec 13, 8:00 AM)13% (Dec 13, 11:30 AM)29.86 "Hg (Dec 13, 4:30 PM)
Average74 °F54%29.95 "Hg
* Reported Dec 13 2:00 AM — Dec 28 2:00 AM, Thiès, Weather by CustomWeather, © 2014

Note: Actual official high and low records may vary slightly from our data, if they occured in-between our weather recording intervals... More about our weather records

Advertising

Thiès weather history for previous 24 hours

 ConditionsComfort  
Time TempWeatherWind HumidityBarometerVisibility
2:00 AM
Dec 28
73 °FClear.9 mph33%29.95 "Hg5 mi
1:30 AM73 °FClear.8 mph36%29.98 "Hg5 mi
1:00 AM75 °FClear.9 mph29%29.98 "Hg5 mi
12:30 AM75 °FClear.12 mph22%29.98 "Hg5 mi
12:00 AM75 °FClear.9 mph25%29.98 "Hg5 mi
11:31 PM
Dec 27
75 °FClear.9 mph29%29.98 "Hg5 mi
11:10 PM77 °FClear.9 mph30%29.98 "Hg5 mi
10:30 PM77 °FClear.10 mph30%29.98 "Hg5 mi
10:00 PM77 °FClear.9 mph34%29.98 "Hg5 mi
9:30 PM75 °FClear.9 mph47%29.98 "Hg5 mi
9:00 PM75 °FClear.9 mph54%29.98 "Hg5 mi
8:30 PM75 °FClear.10 mph57%29.95 "Hg5 mi
8:00 PM75 °FClear.13 mph54%29.95 "Hg5 mi
7:30 PM77 °FClear.13 mph47%29.95 "Hg5 mi
7:00 PM77 °FClear.13 mph44%29.92 "Hg5 mi
6:30 PM77 °FClear.15 mph51%29.92 "Hg4 mi
6:00 PM77 °FClear.15 mph54%29.92 "Hg4 mi
5:30 PM79 °FClear.14 mph42%29.92 "Hg4 mi
5:00 PM81 °FClear.14 mph37%29.92 "Hg4 mi
4:30 PM81 °FClear.13 mph37%29.92 "Hg4 mi
4:00 PM81 °FClear.13 mph39%29.92 "Hg4 mi
3:30 PM82 °FClear.14 mph35%29.92 "Hg4 mi
3:00 PM82 °FClear.14 mph32%29.92 "Hg4 mi
2:30 PM84 °FClear.13 mph27%29.92 "Hg5 mi
2:00 PM86 °FSunny.13 mph25%29.92 "Hg10 mi
1:30 PM84 °FSunny.14 mph29%29.92 "Hg10 mi
1:00 PM84 °FSunny.14 mph27%29.95 "Hg10 mi
12:30 PM84 °FSunny.12 mph25%29.98 "Hg10 mi
12:00 PM82 °FSunny.12 mph30%29.98 "Hg10 mi
11:30 AM81 °FSunny.10 mph30%30.01 "Hg10 mi
11:00 AM81 °FSunny.9 mph32%30.01 "Hg10 mi
10:30 AM82 °FClear.12 mph19%30.01 "Hg5 mi
10:00 AM79 °FClear.13 mph23%30.01 "Hg5 mi
9:30 AM77 °FClear.10 mph24%30.01 "Hg5 mi
9:00 AM75 °FClear.12 mph24%30.01 "Hg5 mi
8:30 AM75 °FClear.10 mph25%29.98 "Hg6 mi
8:00 AM73 °FClear.9 mph25%29.98 "Hg6 mi
7:30 AM73 °FClear.8 mph27%29.98 "Hg6 mi
7:00 AM75 °FClear.8 mph25%29.98 "Hg10 mi
6:30 AM75 °FPassing clouds.8 mph25%29.95 "HgN/A
6:00 AM75 °FClear.8 mph27%29.95 "Hg10 mi
5:30 AM75 °FPassing clouds.8 mph31%29.95 "HgN/A
5:00 AM77 °FClear.8 mph32%29.95 "Hg10 mi
4:30 AM77 °FClear.8 mph32%29.95 "Hg10 mi
3:30 AM73 °FClear.7 mph61%29.95 "Hg10 mi
3:00 AM75 °FClear.5 mph44%29.95 "Hg10 mi
Weather by CustomWeather, © 2014

See weather overviewHow to use our weather pages